Weather History for Hurlburt Field, FL

Change the Weather History Date:

Monday, January 21, 2013

  Actual Average Record
Temperature  
Mean Temperature 52 °F -  
Max Temperature 66 °F 59 °F 73 °F (1999)
Min Temperature 39 °F 40 °F 23 °F (2009)
Degree Days  
Heating Degree Days 12    
Growing Degree Days 2 (Base 50)    
Moisture  
Dew Point 48 °F    
Average Humidity 78    
Maximum Humidity 100    
Minimum Humidity 53    
Precipitation  
Precipitation 0.00 in - - ()
Sea Level Pressure  
Sea Level Pressure 30.15 in    
Wind  
Wind Speed 5 mph (North)    
Max Wind Speed 9 mph    
Max Gust Speed -    
Visibility 10 miles    
Events Rain    
Averages and records for this station are not official NWS values.
T = Trace of Precipitation, MM = Missing Value Source: NWS Daily Summary

Daily Weather History Graph

Daily Weather History Graph

Search for Another Location

Airport:

Trip Planner

Search our weather history database for the weather conditions in past years. The results will help you decide how hot, cold, wet, or windy it might be!

Date:

Astronomy

Jan. 21, 2013 Rise Set
Actual Time 6:42 AM CST 5:13 PM CST
Civil Twilight 6:17 AM CST 5:39 PM CST
Nautical Twilight 5:47 AM CST 6:08 PM CST
Astronomical Twilight 5:19 AM CST 6:37 PM CST
Moon 12:54 PM CST 2:09 AM CST
Length of Visible Light 11h 22m
Length of Day
10h 31m
Waxing Gibbous, 75% of the Moon is Illuminated
Jan 21
Waxing Gibbous
Jan 26
Full
Feb 3
Last Quarter
Feb 10
New
Feb 17
First Quarter

Hourly Weather History & Observations

Time (CST) Temp. Windchill Dew Point Humidity Pressure Visibility Wind Dir Wind Speed Gust Speed Precip Events Conditions
12:55 AM 42.4 °F 40.7 °F 42.4 °F 100% 30.14 in 10.0 mi North 3.5 mph - N/A   Clear
1:55 AM 43.9 °F 39.9 °F 43.7 °F 99% 30.12 in 10.0 mi North 6.9 mph - N/A   Clear
2:55 AM 44.2 °F 40.3 °F 44.2 °F 100% 30.12 in 10.0 mi North 6.9 mph - N/A   Clear
3:55 AM 43.7 °F 40.3 °F 43.7 °F 100% 30.12 in 10.0 mi North 5.8 mph - N/A   Clear
4:55 AM 43.3 °F 39.2 °F 43.3 °F 100% 30.13 in 10.0 mi North 6.9 mph - N/A   Clear
5:55 AM 41.7 °F 38.0 °F 41.7 °F 100% 30.14 in 10.0 mi North 5.8 mph - N/A   Clear
6:55 AM 39.9 °F 35.1 °F 39.9 °F 100% 30.16 in 10.0 mi North 6.9 mph - N/A   Clear
7:55 AM 47.5 °F - 47.5 °F 100% 30.18 in 10.0 mi North 5.8 mph - N/A   Clear
8:15 AM 50.0 °F - 50.0 °F 100% 30.19 in 10.0 mi North 6.9 mph - N/A Rain Light Rain
8:24 AM 50.0 °F - 50.0 °F 100% 30.19 in 10.0 mi North 6.9 mph - N/A   Clear
8:55 AM 52.7 °F - 52.7 °F 100% 30.20 in 10.0 mi North 6.9 mph - 0.00 in   Clear
9:19 AM 55.4 °F - 53.6 °F 94% 30.20 in 10.0 mi NNE 5.8 mph - N/A Rain Light Rain
9:29 AM 57.2 °F - 51.8 °F 82% 30.21 in 10.0 mi NNE 5.8 mph - N/A   Clear
9:55 AM 59.7 °F - 50.0 °F 70% 30.21 in 10.0 mi North 5.8 mph - 0.00 in   Clear
10:55 AM 64.4 °F - 48.4 °F 56% 30.18 in 10.0 mi NNW 9.2 mph - N/A   Clear
11:55 AM 65.8 °F - 48.2 °F 53% 30.14 in 10.0 mi NNE 6.9 mph - N/A   Clear
12:55 PM 66.0 °F - 48.4 °F 53% 30.12 in 10.0 mi Calm Calm - N/A   Clear
1:47 PM 66.2 °F - 50.0 °F 56% 30.12 in 10.0 mi Calm Calm - N/A Rain Light Rain
1:55 PM 64.8 °F - 51.6 °F 62% 30.11 in 10.0 mi Calm Calm - 0.00 in   Light Drizzle
1:57 PM 64.4 °F - 51.8 °F 64% 30.11 in 10.0 mi Variable 5.8 mph - N/A   Clear
1:58 PM 64.4 °F - 51.8 °F 64% 30.11 in 10.0 mi SSW 6.9 mph - N/A   Light Drizzle
2:11 PM 66.2 °F - 53.6 °F 64% 30.11 in 10.0 mi SSW 5.8 mph - N/A   Clear
2:55 PM 64.9 °F - 50.7 °F 60% 30.11 in 10.0 mi SSW 5.8 mph - 0.00 in   Clear
3:27 PM 64.4 °F - 51.8 °F 64% 30.12 in 10.0 mi South 4.6 mph - N/A Rain Light Rain
3:37 PM 64.4 °F - 50.0 °F 59% 30.12 in 10.0 mi Calm Calm - N/A   Clear
3:55 PM 64.0 °F - 49.1 °F 58% 30.12 in 10.0 mi North 6.9 mph - 0.00 in   Clear
4:38 PM 60.8 °F - 50.0 °F 68% 30.12 in 10.0 mi NNE 3.5 mph - N/A   Light Drizzle
4:45 PM 60.8 °F - 50.0 °F 68% 30.12 in 10.0 mi North 3.5 mph - N/A   Clear
4:55 PM 60.8 °F - 49.5 °F 66% 30.13 in 10.0 mi Calm Calm - 0.00 in   Clear
5:20 PM 59.0 °F - 48.2 °F 67% 30.13 in 10.0 mi Calm Calm - N/A   Light Drizzle
5:27 PM 59.0 °F - 48.2 °F 67% 30.14 in 10.0 mi Calm Calm - N/A   Clear
5:55 PM 56.1 °F - 48.7 °F 76% 30.15 in 10.0 mi NW 4.6 mph - 0.00 in   Clear
6:55 PM 53.4 °F - 47.7 °F 81% 30.16 in 10.0 mi North 5.8 mph - N/A   Clear
7:55 PM 51.3 °F - 46.9 °F 85% 30.17 in 10.0 mi North 6.9 mph - N/A   Clear
8:55 PM 53.8 °F - 45.9 °F 75% 30.19 in 10.0 mi North 8.1 mph - N/A   Clear
9:55 PM 52.5 °F - 45.3 °F 76% 30.20 in 10.0 mi North 8.1 mph - N/A   Clear
10:55 PM 50.5 °F - 44.2 °F 79% 30.19 in 10.0 mi North 8.1 mph - N/A   Clear
11:55 PM 48.2 °F - 43.3 °F 83% 30.19 in 10.0 mi North 8.1 mph - N/A   Clear